This demonstration page uses our WeatherBlox Daily Observations layout. Learn more.

Left ArrowRight Arrow

Hourly Observations for April 27, 2021

Temp ( °F °C ) Dew Point ( °F °C ) Humidity (%) Winds ( mph kmh ) Pressure ( in mb ) Visibility ( mi km ) Precip ( " mm )
12:59 am 00:59 Clear 54 12.2 40 4.4 59 59 S 10 17 30.15 1021 10 16 0.00 0.00
1:59 am 01:59 Clear 54 12.2 44 6.7 69 69 S 10 17 30.13 1020 10 16 0.00 0.00
2:59 am 02:59 Clear 55 12.8 46 7.8 72 72 S 8 13 30.12 1020 10 16 0.00 0.00
3:59 am 03:59 Clear 55 12.8 48 8.9 77 77 S 6 9 30.13 1020 10 16 0.00 0.00
4:59 am 04:59 Clear 55 12.8 49 9.4 80 80 SSW 7 11 30.13 1020 10 16 0.00 0.00
5:59 am 05:59 Clear 56 13.3 49 9.4 77 77 SSW 7 11 30.13 1020 10 16 0.00 0.00
6:59 am 06:59 Sunny 56 13.3 49 9.4 77 77 SSW 7 11 30.15 1021 9 14 0.00 0.00
7:59 am 07:59 Sunny 61 16.1 50 10 67 67 SSW 7 11 30.15 1021 10 16 0.00 0.00
8:59 am 08:59 Mostly Sunny 65 18.3 50 10 59 59 SW 10 17 30.15 1021 10 16 0.00 0.00
9:59 am 09:59 Sunny 70 21.1 51 10.6 51 51 SSW 9 15 30.14 1021 10 16 0.00 0.00
10:59 am 10:59 Sunny 75 23.9 51 10.6 43 43 SW 9 15 30.13 1020 10 16 0.00 0.00
11:59 am 11:59 Sunny 79 26.1 50 10 36 36 SW 15 24 30.10 1019 10 16 0.00 0.00
12:59 pm 12:59 Sunny 80 26.7 50 10 35 35 WSW 18 30 30.08 1019 10 16 0.00 0.00
1:59 pm 13:59 Mostly Sunny 82 27.8 49 9.4 32 32 WSW 17 28 30.06 1018 10 16 0.00 0.00
2:59 pm 14:59 Sunny 83 28.3 50 10 32 32 SW 15 24 30.04 1017 10 16 0.00 0.00
3:59 pm 15:59 Mostly Sunny 83 28.3 52 11.1 34 34 SW 10 17 30.01 1016 10 16 0.00 0.00
4:59 pm 16:59 Partly Cloudy 82 27.8 50 10 33 33 SSW 15 24 30.00 1016 10 16 0.00 0.00
5:59 pm 17:59 Mostly Cloudy 82 27.8 50 10 33 33 SSW 10 17 29.99 1016 10 16 0.00 0.00
6:59 pm 18:59 Mostly Cloudy 80 26.7 49 9.4 34 34 SW 13 20 30.00 1016 10 16 0.00 0.00
7:59 pm 19:59 Mostly Cloudy 77 25 49 9.4 37 37 SSW 9 15 30.00 1016 10 16 0.00 0.00
8:59 pm 20:59 Mostly Cloudy 74 23.3 48 8.9 40 40 SW 10 17 30.02 1017 10 16 0.00 0.00
9:59 pm 21:59 Mostly Cloudy 74 23.3 47 8.3 38 38 SSW 12 19 30.03 1017 10 16 0.00 0.00
10:59 pm 22:59 Mostly Cloudy 72 22.2 47 8.3 41 41 SSW 10 17 30.02 1017 10 16 0.00 0.00
11:59 pm 23:59 Mostly Cloudy 69 20.6 50 10 51 51 SSW 13 20 30.04 1017 10 16 0.00 0.00

Powered by AerisWeather